This demonstration page uses our WeatherBlox Daily Observations layout. Learn more.

Left ArrowRight Arrow

Hourly Observations for May 25, 2018

Temp ( °F °C ) Dew Point ( °F °C ) Humidity (%) Winds ( mph kmh ) Pressure ( in mb ) Visibility ( mi km ) Precip ( " mm )
12:15 am 00:15 Clear 70 21 58 14.6 67 67 W 7 11 29.85 1011 10 16.0934 0 0
12:35 am 00:35 Clear 71 21.5 52 11 51 51 SW 7 11 29.85 1011 10 16.0934 0 0
12:55 am 00:55 Partly Cloudy 71 21.5 51 10.5 50 50 SW 8 13 29.85 1011 10 16.0934 0 0
1:15 am 01:15 Clear 70 21 51 10.5 51 51 SW 8 13 29.85 1011 10 16.0934 0 0
1:35 am 01:35 Clear 68 20 52 11 56 56 SW 8 13 29.85 1011 10 16.0934 0 0
1:55 am 01:55 Clear 68 20 51 10.7 55 55 SW 8 13 29.83 1010 10 16.0934 0 0
2:15 am 02:15 Clear 67 19.4 51 10.6 57 57 SW 8 13 29.83 1010 10 16.0934 0 0
2:35 am 02:35 Clear 67 19.3 51 10.5 57 57 SW 7 11 29.83 1010 10 16.0934 0 0
2:55 am 02:55 Clear 66 19 51 10.5 58 58 SW 8 13 29.83 1010 10 16.0934 0 0
3:15 am 03:15 Clear 67 19.3 50 10.1 55 55 SW 7 11 29.83 1010 10 16.0934 0 0
3:35 am 03:35 Clear 68 19.9 50 10 53 53 SW 9 15 29.83 1010 10 16.0934 0 0
3:55 am 03:55 Clear 68 20 50 10 53 53 SW 9 15 29.83 1010 10 16.0934 0 0
4:15 am 04:15 Clear 67 19.2 50 10.1 56 56 SW 7 11 29.83 1010 10 16.0934 0 0
4:35 am 04:35 Clear 66 18.9 50 10.2 57 57 WSW 8 13 29.83 1010 10 16.0934 0 0
4:55 am 04:55 Clear 65 18.5 51 10.5 60 60 WSW 9 15 29.85 1011 10 16.0934 0 0
5:15 am 05:15 Clear 65 18.3 51 10.6 61 61 WSW 7 11 29.85 1011 10 16.0934 0 0
5:35 am 05:35 Clear 64 17.8 52 11 65 65 WSW 9 15 29.85 1011 10 16.0934 0 0
5:55 am 05:55 Clear 63 17 52 11 68 68 W 13 20 29.85 1011 10 16.0934 0 0
6:15 am 06:15 Sunny 62 16.6 52 11 70 70 W 9 15 29.85 1011 10 16.0934 0 0
6:35 am 06:35 Sunny 62 16.5 52 11 70 70 W 10 17 29.85 1011 10 16.0934 0 0
6:55 am 06:55 Sunny 62 16.8 52 11.2 70 70 S 3 6 29.88 1012 10 16.0934 0 0
7:15 am 07:15 Sunny 63 17 53 11.5 70 70 W 8 13 29.88 1012 10 16.0934 0 0
7:35 am 07:35 Sunny 64 18 53 11.9 68 68 W 5 7 29.88 1012 10 16.0934 0 0
7:55 am 07:55 Sunny 67 19.2 53 11.8 62 62 W 6 9 29.85 1011 10 16.0934 0 0
8:15 am 08:15 Sunny 68 20.1 54 12 60 60 WNW 10 17 29.83 1010 10 16.0934 0 0
8:35 am 08:35 Sunny 70 21.3 54 12.1 56 56 W 12 19 29.83 1010 10 16.0934 0 0
8:55 am 08:55 Sunny 73 22.6 54 12.4 53 53 W 9 15 29.83 1010 10 16.0934 0 0
9:15 am 09:15 Sunny 75 23.7 54 12.3 49 49 W 14 22 29.8 1009 10 16.0934 0 0
9:35 am 09:35 Sunny 76 24.5 54 12.3 47 47 W 14 22 29.83 1010 10 16.0934 0 0
9:55 am 09:55 Sunny 78 25.5 54 12.3 44 44 WSW 13 20 29.83 1010 10 16.0934 0 0
10:15 am 10:15 Sunny 78 25.7 55 12.6 44 44 SW 10 17 29.83 1010 10 16.0934 0 0
10:35 am 10:35 Sunny 79 25.9 55 13 45 45 SW 13 20 29.83 1010 10 16.0934 0 0
10:55 am 10:55 Sunny 79 26 56 13.4 46 46 WSW 8 13 29.83 1010 10 16.0934 0 0
11:15 am 11:15 Sunny 80 26.4 57 14 46 46 SW 7 11 29.8 1009 10 16.0934 0 0
11:35 am 11:35 Sunny 81 27 58 14.3 46 46 SSW 8 13 29.8 1009 10 16.0934 0 0
11:55 am 11:55 Sunny 82 27.9 57 13.7 42 42 SW 8 13 29.77 1008 10 16.0934 0 0
12:15 pm 12:15 Sunny 83 28.1 55 13 39 39 WSW 8 13 29.77 1008 10 16.0934 0 0
12:35 pm 12:35 Sunny 84 29 57 13.9 40 40 WSW 8 13 29.77 1008 10 16.0934 0 0
12:55 pm 12:55 Sunny 85 29.6 58 14.2 39 39 WSW 7 11 29.77 1008 10 16.0934 0 0
1:15 pm 13:15 Sunny 86 30.1 58 14.3 38 38 SW 9 15 29.74 1007 10 16.0934 0 0
1:35 pm 13:35 Sunny 87 30.8 59 15 38 38 SW 9 15 29.71 1006 10 16.0934 0 0
1:55 pm 13:55 Sunny 87 30.7 58 14.6 38 38 SSW 7 11 29.71 1006 10 16.0934 0 0
2:15 pm 14:15 Sunny 89 31.4 58 14.4 36 36 SSW 9 15 29.71 1006 10 16.0934 0 0
2:35 pm 14:35 Sunny 88 31.3 58 14.5 36 36 SW 8 13 29.71 1006 10 16.0934 0 0
2:55 pm 14:55 Sunny 89 31.8 58 14.2 34 34 SSW 9 15 29.71 1006 10 16.0934 0 0
3:15 pm 15:15 Sunny 90 32.4 57 14.1 33 33 SW 10 17 29.68 1005 10 16.0934 0 0
3:35 pm 15:35 Sunny 91 32.5 58 14.6 34 34 SW 7 11 29.68 1005 10 16.0934 0 0
3:55 pm 15:55 Partly Cloudy 89 31.9 57 14.1 34 34 W 8 13 29.68 1005 10 16.0934 0 0
4:15 pm 16:15 Mostly Cloudy 92 33.1 56 13.4 30 30 WSW 14 22 29.62 1003 10 16.0934 0 0
4:35 pm 16:35 Mostly Cloudy 92 33.2 55 12.9 29 29 W 10 17 29.62 1003 10 16.0934 0 0
4:55 pm 16:55 Mostly Cloudy 93 33.9 55 12.9 28 28 W 15 24 29.62 1003 10 16.0934 0 0
5:15 pm 17:15 Mostly Cloudy 92 33.1 52 11.2 26 26 WNW 7 11 29.62 1003 10 16.0934 0 0
5:35 pm 17:35 Mostly Cloudy 91 32.6 52 11.2 27 27 W 10 17 29.62 1003 10 16.0934 0 0
5:55 pm 17:55 Mostly Cloudy 93 33.8 53 11.8 26 26 WSW 10 17 29.62 1003 10 16.0934 0 0
6:15 pm 18:15 Mostly Cloudy 91 32.6 52 10.9 26 26 W 13 20 29.59 1002 10 16.0934 0 0
6:35 pm 18:35 Partly Cloudy 91 33 48 8.7 22 22 NW 9 15 29.59 1002 10 16.0934 0 0
6:55 pm 18:55 Sunny 90 32.3 48 9.1 24 24 WNW 7 11 29.59 1002 10 16.0934 0 0
7:15 pm 19:15 Partly Cloudy 92 33.3 49 9.3 23 23 NNW 8 13 29.59 1002 10 16.0934 0 0
7:35 pm 19:35 Sunny 91 32.9 50 10 24 24 NNW 9 15 29.59 1002 10 16.0934 0 0
7:55 pm 19:55 Sunny 87 30.8 55 12.6 33 33 N 6 9 29.62 1003 10 16.0934 0 0
8:15 pm 20:15 Sunny 85 29.2 56 13.6 38 38 NNE 6 9 29.62 1003 10 16.0934 0 0
8:35 pm 20:35 Sunny 83 28.6 56 13.3 39 39 NE 5 7 29.62 1003 10 16.0934 0 0
8:55 pm 20:55 Sunny 80 26.8 57 13.8 45 45 SSE 6 9 29.65 1004 10 16.0934 0 0
9:15 pm 21:15 Clear 82 28 60 15.4 46 46 S 6 9 29.68 1005 10 16.0934 0 0
9:35 pm 21:35 Clear 81 27.1 58 14.5 46 46 SSW 5 7 29.68 1005 10 16.0934 0 0
9:55 pm 21:55 Clear 79 26.3 60 15.6 52 52 SSW 7 11 29.68 1005 10 16.0934 0 0
10:15 pm 22:15 Clear 78 25.8 61 16.2 55 55 SSW 8 13 29.68 1005 10 16.0934 0 0
10:35 pm 22:35 Clear 76 24.5 61 16 59 59 SSW 6 9 29.71 1006 10 16.0934 0 0
10:55 pm 22:55 Clear 76 24.2 61 16 60 60 SSW 7 11 29.71 1006 10 16.0934 0 0
11:15 pm 23:15 Clear 75 23.7 60 15.8 61 61 SW 7 11 29.71 1006 10 16.0934 0 0
11:35 pm 23:35 Clear 74 23.5 60 15.4 61 61 SW 6 9 29.71 1006 10 16.0934 0 0
11:55 pm 23:55 Clear 75 23.8 59 14.8 57 57 SSW 7 11 29.71 1006 10 16.0934 0 0

Powered by AerisWeather